Location: Newark
(25.4800°N, 85.7200°E)
Time: 23:11:34
(UTC+00:00)

Transit 4A - Pass Details

Date: 28 August 2019
Orbit: 865 x 980 km, 66.8° (Epoch: 20 September)

Event Time Altitude Azimuth Distance (km) Brightness Sun altitude
Rises 11:46:33 0° 245° (WSW) 3,656 12.1 11.3°
Reaches altitude 10° 11:50:08 10° 265° (W) 2,720 12.7 10.5°
Maximum altitude 11:54:04 17° 304° (NW) 2,265 11.3 9.6°
Drops below altitude 10° 11:58:02 10° 343° (NNW) 2,727 10.7 8.7°
Sets 12:01:40 0° 3° (N) 3,670 11.1 7.9°
